Farmville, Virginia, United States (23901)
Lat: 37.30N, Lon: 78.39W
Wx Zone: VAZ060
Local Info
Past Weather Observations for Today

NOTE: This archive is for the closest National Weather Service station to Farmville. Information may differ from the station used for current weather conditions.

Click here for Long-term Archive

Time Weather Temperature Dewpoint Humidity Pressure Winds Precip Visibility
23:18
Overcast
63°F / 17°C 61°F / 16°C 94% 30.18 in
(1022 mb)
NNE 3.5 mph
(NNE 6 kph)
- 8SM
23:04
Overcast
63°F / 17°C 61°F / 16°C 94% 30.18 in
(1022 mb)
Calm - 10SM
22:54
Overcast
63°F / 17°C 61°F / 16°C 94% 30.18 in
(1022 mb)
NE 3.5 mph
(NE 6 kph)
0.01 in
(0.25 mm)
10SM
22:28
Overcast
Light Rain
63°F / 17°C 61°F / 16°C 94% 30.18 in
(1022 mb)
ENE 5.8 mph
(ENE 9 kph)
0.01 in
(0.25 mm)
9SM
21:54
Overcast
63°F / 17°C 61°F / 16°C 94% 30.18 in
(1022 mb)
ENE 4.6 mph
(ENE 7 kph)
0.00 in
(0.00 mm)
10SM
21:37
Overcast
63°F / 17°C 61°F / 16°C 94% 30.18 in
(1022 mb)
ENE 4.6 mph
(ENE 7 kph)
0.00 in
(0.00 mm)
10SM
20:54
Overcast
Light Rain
63°F / 17°C 61°F / 16°C 94% 30.18 in
(1022 mb)
E 3.5 mph
(E 6 kph)
0.07 in
(1.78 mm)
10SM
20:49
Overcast
Light Rain
63°F / 17°C 61°F / 16°C 94% 30.18 in
(1022 mb)
E 4.6 mph
(E 7 kph)
0.07 in
(1.78 mm)
9SM
20:11
Overcast
Light Rain
64°F / 18°C 61°F / 16°C 88% 30.18 in
(1022 mb)
E 9.2 mph
(E 15 kph)
0.05 in
(1.27 mm)
5SM
20:03
Overcast
Rain
64°F / 18°C 64°F / 18°C 100% 30.18 in
(1022 mb)
E 8.1 mph
(E 13 kph)
0.03 in
(0.76 mm)
4SM
19:54
Overcast
Light Rain
66°F / 19°C 64°F / 18°C 94% 30.15 in
(1021 mb)
ESE 4.6 mph
(ESE 7 kph)
0.00 in
(0.00 mm)
8SM
19:07
Overcast
Light Rain
66°F / 19°C 66°F / 19°C 100% 30.15 in
(1021 mb)
ENE 4.6 mph
(ENE 7 kph)
0.00 in
(0.00 mm)
6SM
18:54
Overcast
66°F / 19°C 66°F / 19°C 100% 30.15 in
(1021 mb)
ENE 4.6 mph
(ENE 7 kph)
0.02 in
(0.51 mm)
9SM
18:09
Overcast
Light Rain
66°F / 19°C 64°F / 18°C 94% 30.15 in
(1021 mb)
ENE 4.6 mph
(ENE 7 kph)
0.01 in
(0.25 mm)
7SM
17:54
Overcast
Light Rain
68°F / 20°C 64°F / 18°C 88% 30.15 in
(1021 mb)
ENE 11.5 mph
(ENE 19 kph)
0.01 in
(0.25 mm)
5SM
17:43
Overcast
Light Rain
68°F / 20°C 64°F / 18°C 88% 30.15 in
(1021 mb)
NE 10.4 mph
(NE 17 kph)
0.00 in
(0.00 mm)
8SM
16:54
Overcast
Light Rain
70°F / 21°C 64°F / 18°C 83% 30.18 in
(1022 mb)
NNE 6.9 mph
(NNE 11 kph)
0.00 in
(0.00 mm)
10SM
15:54
Mostly Cloudy
70°F / 21°C 64°F / 18°C 83% 30.18 in
(1022 mb)
NE 10.4 mph
(NE 17 kph)
0.00 in
(0.00 mm)
10SM
15:27
Overcast
Light Rain
70°F / 21°C 64°F / 18°C 83% 30.18 in
(1022 mb)
NE 8.1 mph
(NE 13 kph)
0.00 in
(0.00 mm)
10SM
15:18
Mostly Cloudy
Light Rain
70°F / 21°C 64°F / 18°C 83% 30.18 in
(1022 mb)
NE 5.8 mph
(NE 9 kph)
0.00 in
(0.00 mm)
10SM
14:54
Partly Cloudy
70°F / 21°C 64°F / 18°C 83% 30.18 in
(1022 mb)
NE 5.8 mph
(NE 9 kph)
- 10SM
13:54
Partly Cloudy
70°F / 21°C 64°F / 18°C 83% 30.18 in
(1022 mb)
NE 9.2 mph
(NE 15 kph)
0.00 in
(0.00 mm)
10SM
12:54
Mostly Cloudy
Light Rain
68°F / 20°C 64°F / 18°C 88% 30.18 in
(1022 mb)
NNE 9.2 mph
(NNE 15 kph)
0.02 in
(0.51 mm)
10SM
11:54
Overcast
Light Rain
66°F / 19°C 64°F / 18°C 94% 30.21 in
(1023 mb)
NE 6.9 mph
(NE 11 kph)
0.04 in
(1.02 mm)
7SM
11:40
Overcast
Light Rain
66°F / 19°C 66°F / 19°C 100% 30.21 in
(1023 mb)
NE 5.8 mph
(NE 9 kph)
0.03 in
(0.76 mm)
6SM
10:54
Overcast
Light Rain
66°F / 19°C 66°F / 19°C 100% 30.21 in
(1023 mb)
N 5.8 mph
(N 9 kph)
0.08 in
(2.03 mm)
7SM
09:54
Overcast
Rain
66°F / 19°C 64°F / 18°C 94% 30.21 in
(1023 mb)
N 4.6 mph
(N 7 kph)
0.10 in
(2.54 mm)
5SM
08:54
Overcast
Rain
66°F / 19°C 64°F / 18°C 94% 30.21 in
(1023 mb)
Calm 0.09 in
(2.29 mm)
4SM
08:04
Overcast
Light Rain
66°F / 19°C 64°F / 18°C 94% 30.21 in
(1023 mb)
Calm 0.01 in
(0.25 mm)
8SM
07:54
Overcast
Light Rain
66°F / 19°C 64°F / 18°C 94% 30.21 in
(1023 mb)
Calm 0.03 in
(0.76 mm)
10SM
07:03
Overcast
Light Rain
66°F / 19°C 64°F / 18°C 94% 30.21 in
(1023 mb)
Calm 0.01 in
(0.25 mm)
5SM
06:54
Overcast
Light Rain
66°F / 19°C 66°F / 19°C 100% 30.21 in
(1023 mb)
Calm 0.07 in
(1.78 mm)
2SM
06:19
Overcast
Light Rain
64°F / 18°C 64°F / 18°C 100% 30.21 in
(1023 mb)
Calm 0.03 in
(0.76 mm)
2SM
05:54
Overcast
Light Rain
66°F / 19°C 66°F / 19°C 100% 30.21 in
(1023 mb)
Calm 0.02 in
(0.51 mm)
7SM
04:54
Overcast
Light Rain
66°F / 19°C 66°F / 19°C 100% 30.18 in
(1022 mb)
Calm 0.06 in
(1.52 mm)
7SM
03:54
Overcast
Light Rain
66°F / 19°C 66°F / 19°C 100% 30.18 in
(1022 mb)
Calm 0.09 in
(2.29 mm)
5SM
03:35
Overcast
Light Rain
66°F / 19°C 66°F / 19°C 100% 30.18 in
(1022 mb)
Calm 0.06 in
(1.52 mm)
4SM
03:27
Overcast
Rain
66°F / 19°C 66°F / 19°C 100% 30.18 in
(1022 mb)
Calm 0.04 in
(1.02 mm)
3SM
03:23
Overcast
Light Rain
66°F / 19°C 66°F / 19°C 100% 30.18 in
(1022 mb)
Calm 0.03 in
(0.76 mm)
4SM
03:09
Overcast
Light Rain
66°F / 19°C 66°F / 19°C 100% 30.18 in
(1022 mb)
Calm 0.01 in
(0.25 mm)
4SM
02:54
Overcast
Light Rain
66°F / 19°C 66°F / 19°C 100% 30.18 in
(1022 mb)
Calm 0.01 in
(0.25 mm)
6SM
02:44
Overcast
Light Rain
66°F / 19°C 66°F / 19°C 100% 30.18 in
(1022 mb)
Calm 0.00 in
(0.00 mm)
6SM
02:30
Overcast
Light Rain
66°F / 19°C 66°F / 19°C 100% 30.18 in
(1022 mb)
Calm 0.00 in
(0.00 mm)
7SM
02:23
Overcast
Light Rain
66°F / 19°C 66°F / 19°C 100% 30.18 in
(1022 mb)
SW 3.5 mph
(SW 6 kph)
0.00 in
(0.00 mm)
7SM
02:12
Overcast
Light Rain
66°F / 19°C 66°F / 19°C 100% 30.18 in
(1022 mb)
S 4.6 mph
(S 7 kph)
0.00 in
(0.00 mm)
8SM
01:54
Overcast
Light Rain
66°F / 19°C 66°F / 19°C 100% 30.18 in
(1022 mb)
SSE 3.5 mph
(SSE 6 kph)
0.06 in
(1.52 mm)
8SM
00:54
Overcast
66°F / 19°C 66°F / 19°C 100% 30.18 in
(1022 mb)
Calm - 9SM
Time Weather Temperature Dewpoint Humidity Pressure Winds Precip Visibility


Weather for websites

WeatherForYou.com, LLC is not responsible for any damages or problems caused by this service. Current weather conditions are obtained from the closest station including government and personal stations which may have varying degrees of accuracy. Weather forecasts are derived from the NOAA NDFD. Like all things, this site belongs to Jesus Christ... He just trusts me to maintain it. If you have any questions or comments email webmaster@weatherforyou.com

Copyright © 2014, WeatherForYou.com LLC. All rights reserved.